Location: Buckeye Ditch
(40.9104°N, 122.9517°W)
Time: 16:07:07
(UTC+00:00)

Daily predictions for brighter satellites

Satellite Brightness Start Highest point End
(mag) Time Altitude Azimuth Time Altitude Azimuth Time Altitude Azimuth
YAOGAN 6 2.2 12:02:47 10° N 12:06:02 69° WNW 12:07:11 36° SSW
H-2A R/B 3.6 12:01:45 10° NNE 12:06:17 33° E 12:10:53 10° SSE
Cosmos 1805 2.9 12:03:21 10° NNW 12:07:03 74° W 12:10:44 10° S
Cosmos 1151 Rocket 3.8 12:09:52 29° WSW 12:10:55 33° WNW 12:14:50 10° NNW
NOSS 2-2 (E) 4.3 12:09:18 10° NW 12:14:07 58° WSW 12:20:58 10° SSE
Cosmos 1553 Rocket 3.9 12:08:54 10° N 12:15:13 84° W 12:21:23 10° S
Cosmos 1867 4.2 12:11:28 10° NW 12:16:17 32° WSW 12:21:04 10° S
DMSP B5D2-2 4.0 12:13:54 10° S 12:19:05 81° WSW 12:24:19 10° NNW
NOSS 7 (E) 4.5 12:16:08 10° NNW 12:19:22 85° NE 12:23:23 10° SE
Iridium 51 4.0 12:16:48 10° S 12:20:12 74° E 12:23:32 10° N
Cosmos 2112 Rocket 4.1 12:16:48 18° SW 12:20:41 60° WNW 12:25:59 10° NNE
Cosmos 1461 2.9 12:18:01 10° NW 12:21:40 43° WSW 12:25:16 10° S
Cosmos 1515 Rocket 4.2 12:17:58 10° S 12:22:19 59° E 12:26:42 10° NNE
RESURS DK-1 4.2 12:21:15 14° WNW 12:22:23 16° NW 12:24:55 10° NNW
Cosmos 921 Rocket 2.9 12:19:16 16° SSW 12:22:36 74° WNW 12:26:56 10° NNE
NOSS 2-2 (D) 4.2 12:23:15 10° NW 12:28:00 60° WSW 12:34:45 10° SSE
Cosmos 1470 Rocket 3.7 12:24:24 10° N 12:28:48 78° E 12:33:12 10° S
Cosmos 2278 Rocket 2.9 12:26:22 10° NW 12:31:19 32° WSW 12:36:14 10° SSW
Cosmos 1939 Rocket 4.1 12:31:30 10° NNE 12:35:04 40° E 12:38:38 10° S
USA 308 3.4 12:32:13 12° SSW 12:35:27 47° SE 12:39:14 10° ENE
IRS-1D 3.9 12:30:41 10° N 12:35:29 44° WNW 12:40:22 10° SW
Chandra Rocket (1) 3.9 12:33:55 10° SSW 12:36:32 18° SSE 12:41:15 10° ESE
SL-16 R/B 4.1 12:36:05 13° W 12:36:47 13° W 12:39:41 10° WNW
Lacrosse 5 4.3 12:34:28 10° NW 12:36:58 13° N 12:39:28 10° NNE
CRYOSAT 2 4.3 12:37:18 10° N 12:42:10 71° W 12:47:00 10° SSW
ALOS 4.4 12:41:41 10° NW 12:42:17 10° WNW 12:42:54 10° WNW
Cosmos 1666 Rocket 4.2 12:38:12 10° NNW 12:42:18 36° W 12:46:20 10° SSW
Cosmos 1975 3.6 12:41:30 10° NNW 12:44:52 29° W 12:48:13 10° SSW
Cosmos 1048 Rocket 4.4 12:40:07 10° S 12:45:25 71° ESE 12:50:41 10° NNE
ATLAS 2AS CENTAUR R/B 2.9 12:37:59 10° SW 12:45:28 75° NW 12:52:41 10° NNE
Cosmos 1766 3.0 12:42:12 10° N 12:45:55 82° W 12:49:34 10° S
YAOGAN 11 4.4 12:41:57 10° SSE 12:46:23 74° ENE 12:50:54 10° N
SL-16 R/B 2.2 12:41:30 10° SSW 12:47:09 75° WNW 12:52:50 10° NNE
Cosmos 1674 2.4 12:49:44 10° S 12:53:09 84° E 12:56:36 10° N
KORONAS-FOTON 4.0 12:50:56 10° S 12:54:35 72° E 12:58:14 10° NNE
Cosmos 1933 Rocket 3.7 12:51:47 10° N 12:56:11 79° E 13:00:30 10° S
ARIANE 5 R/B 3.7 12:51:42 10° NNE 12:56:46 47° E 13:01:46 10° S
Cosmos 1484 Rocket 2.7 12:56:08 10° N 12:59:39 53° WNW 13:03:08 10° SSW
Cosmos 1656 Rocket 4.1 12:56:19 10° NNW 13:01:43 66° ENE 13:07:05 10° SSE
Cosmos 2056 Rocket 4.0 12:57:04 10° NW 13:02:05 40° WSW 13:07:07 10° S
Cosmos 1340 3.8 13:01:14 10° NW 13:03:44 19° W 13:06:13 10° SW
Cosmos 1452 Rocket 4.0 13:04:07 10° NNW 13:09:23 68° ENE 13:14:35 10° SSE
Cosmos 494 Rocket 4.2 13:04:30 10° SW 13:09:32 52° WNW 13:14:34 10° N
